Location: Godiavel Galaoual
(15.2485°N, 12.6604°W)
Time: 04:15:55
(UTC+00:00)

DELTA 2 R/B(2) - Pass Details

Date: 27 February 2020
Orbit: 265 x 16527 km, 39.5° (Epoch: 07 April)

Event Time Altitude Azimuth Distance (km) Brightness Sun altitude
Rises 19:05:39 0° 314° (NW) 1,885 8.2 -2.7°
Reaches altitude 10° 19:07:00 10° 319° (NW) 1,193 7.1 -3.0°
Maximum altitude 19:09:10 60° 42° (NE) 502 4.4 -3.6°
Drops below altitude 10° 19:14:19 10° 123° (ESE) 2,800 8.0 -4.8°
Sets 19:19:24 0° 126° (SE) 5,225 9.3 -6.0°
